Wind_Speed
27 27 27 26 25 23 22 22 21 21 20 20 20 20 21 22 24 26 29 31 33 34 36 38 39 38 38 37 36 36 37 38 38 40 43 45 46 46 45 45 46 48
29 29 28 26 25 24 23 22 22 21 22 22 22 23 23 23 23 25 27 29 31 33 35 37 39 39 40 39 38 37 37 37 37 38 40 42 45 46 46 46 46 47
28 28 27 26 25 24 23 23 23 23 23 24 24 25 25 26 26 26 26 27 29 31 34 36 37 38 40 40 41 40 38 38 37 37 39 41 42 44 46 46 46 46
28 27 26 26 25 24 24 24 24 25 25 26 27 27 28 28 29 29 29 29 29 30 32 34 35 37 38 39 40 41 41 39 38 37 38 39 40 42 43 45 46 46
27 27 26 26 25 25 25 26 26 27 28 28 29 29 30 31 31 32 33 32 31 31 32 33 34 35 37 38 39 40 41 41 39 38 38 38 38 40 41 43 45 46
28 27 27 27 27 27 27 28 29 29 30 31 31 31 32 33 33 34 35 35 34 33 33 33 34 35 36 37 39 39 40 40 40 40 40 39 38 38 40 40 43 45
29 28 28 29 29 29 29 29 30 31 32 33 34 34 34 35 35 35 36 36 35 35 34 34 35 35 36 37 39 40 40 40 40 40 41 41 39 39 40 39 40 43
29 29 29 30 30 31 31 31 32 33 34 35 36 36 36 37 36 35 36 37 36 35 35 35 35 35 36 38 39 41 41 41 41 41 42 42 41 41 40 39 39 40
30 30 31 31 32 32 32 32 33 34 35 36 38 38 38 38 37 36 36 37 37 36 35 35 35 35 36 37 39 41 42 44 44 43 43 43 43 42 41 40 41 41
31 32 32 33 32 33 33 33 34 35 36 37 39 39 40 39 39 38 37 37 37 36 35 34 34 35 35 36 38 40 42 45 46 46 46 45 44 44 43 42 42 42
32 33 33 33 33 33 34 34 35 36 37 38 39 40 41 40 40 39 38 37 36 36 35 34 34 35 36 36 36 38 41 44 47 48 48 48 47 46 45 45 44 44
33 33 33 34 34 34 35 35 36 37 38 40 41 41 42 41 41 41 40 38 37 36 37 36 36 36 36 37 36 36 39 42 46 49 50 50 50 49 48 47 46 46
34 33 34 34 34 36 37 37 38 39 40 41 42 42 42 42 42 41 41 40 39 38 38 38 38 38 38 37 37 36 37 39 43 47 50 52 52 52 51 50 49 48
34 34 34 35 36 37 39 39 40 41 42 43 43 43 42 42 42 42 41 41 41 40 40 40 41 41 40 38 37 36 36 37 39 43 47 51 53 54 53 53 52 50
34 35 35 37 38 39 40 41 42 43 43 43 43 42 42 42 42 42 42 42 42 42 42 42 43 42 41 39 37 36 37 37 38 40 43 47 50 53 55 55 54 53
34 36 37 38 39 40 41 42 42 43 43 43 42 42 42 42 42 42 42 42 43 43 44 44 44 43 42 39 38 38 38 39 40 41 42 43 46 50 54 55 56 55
34 36 37 38 39 40 41 42 42 42 42 41 41 41 41 41 41 41 41 42 43 44 45 45 45 44 42 40 39 39 39 40 41 42 43 45 46 48 51 53 55 56
34 35 36 38 39 40 40 41 42 42 42 41 41 40 39 39 39 39 40 41 43 44 45 45 46 45 43 42 41 41 40 41 42 43 45 47 48 49 51 52 53 55
33 34 36 37 39 40 40 41 42 42 42 41 39 38 37 37 37 38 39 40 41 43 44 45 46 46 45 45 44 43 43 44 45 46 48 49 50 51 53 54 54 54
33 34 36 38 39 40 40 41 41 41 40 39 37 35 35 35 36 36 37 38 40 42 43 45 46 47 47 47 48 48 47 48 49 49 51 52 53 53 54 55 56 55
33 34 36 37 39 40 41 41 42 40 38 35 34 34 35 35 35 36 37 38 40 42 44 46 46 47 48 50 51 51 52 53 54 55 55 55 56 56 55 56 58 58
33 34 36 38 40 41 41 42 41 39 36 34 34 34 35 35 36 37 38 40 41 43 45 47 48 49 51 52 54 55 56 58 59 59 59 58 58 58 57 57 57 59
33 35 37 39 42 42 42 42 40 37 34 33 34 34 35 35 36 37 39 41 43 46 49 51 52 53 54 55 57 58 60 61 62 62 61 60 60 60 59 59 58 59
33 36 38 40 42 43 43 42 38 35 34 33 34 35 35 36 37 39 41 44 46 49 52 55 55 55 55 55 55 56 58 59 59 60 59 59 60 61 61 60 59 59
34 37 39 40 42 43 43 40 37 35 34 33 35 35 36 36 38 40 43 46 49 52 55 55 54 51 47 46 45 45 47 49 50 52 54 55 57 59 61 60 59 59
36 38 40 41 42 43 42 39 36 35 34 34 35 36 36 37 39 42 45 48 51 54 54 51 47 43 40 38 38 38 40 43 45 47 50 52 54 57 58 58 58 59
Wind_Direction
282 283 285 288 289 287 284 283 284 286 286 286 286 284 283 284 285 285 283 281 278 275 274 273 273 271 269 266 263 260 257 253 250 249 251 251 252 253 253 254 254 254
280 281 283 285 285 284 282 280 282 285 287 289 289 288 287 285 285 284 284 284 282 279 276 274 273 273 272 270 267 264 261 258 254 250 249 249 250 251 252 253 254 254
279 281 282 283 283 282 281 280 281 284 288 290 290 291 291 290 289 287 286 285 284 282 280 277 274 273 272 272 271 269 265 262 258 254 251 249 249 249 249 251 252 253
279 280 281 281 282 282 281 281 282 285 288 289 289 291 292 292 292 291 289 286 284 283 282 280 277 274 272 271 271 271 269 266 262 258 255 252 250 249 249 249 251 252
279 280 280 280 281 282 283 283 284 286 287 287 288 290 291 292 293 293 291 288 286 284 282 280 278 275 272 270 269 269 269 268 265 262 258 255 252 250 249 249 250 251
279 279 279 280 281 282 284 285 285 286 287 286 287 288 289 290 292 292 292 290 288 285 282 280 278 276 273 270 267 266 266 267 266 264 260 257 254 252 250 248 248 250
277 277 278 279 281 282 284 285 285 285 286 286 286 287 287 288 289 291 292 291 289 287 284 280 277 275 272 269 267 265 264 264 264 264 262 259 256 253 252 249 246 247
278 277 278 279 281 284 285 285 285 285 286 286 287 288 288 288 289 291 292 292 290 288 285 281 278 274 271 269 266 264 262 261 261 261 261 260 257 255 253 251 248 246
279 278 279 281 283 285 286 287 287 287 288 288 289 289 290 290 291 291 292 291 290 288 285 282 278 275 271 268 265 263 261 259 258 258 258 258 258 256 254 251 249 247
280 280 281 283 284 286 286 287 288 288 289 290 291 291 291 292 292 292 292 290 289 287 285 282 279 276 273 269 265 262 259 257 256 256 255 255 255 256 255 252 250 248
282 282 283 284 285 285 286 287 288 289 290 290 292 292 292 293 292 292 291 289 286 285 284 283 281 278 275 271 267 263 259 256 255 254 254 254 254 253 253 253 251 249
282 283 283 284 285 285 286 287 288 289 289 290 291 292 292 292 291 291 289 287 284 282 282 282 281 279 277 274 271 266 261 258 255 254 253 253 253 252 251 251 251 250
283 283 283 284 284 285 286 287 288 289 289 290 291 291 290 290 289 289 287 285 283 281 280 280 280 278 277 275 273 270 266 262 258 256 254 253 253 252 251 250 249 248
283 283 284 284 285 285 286 287 289 289 290 290 290 289 288 287 286 285 284 282 281 280 280 279 279 277 275 274 273 272 270 267 263 260 256 254 253 252 252 251 249 247
282 283 284 284 285 286 287 288 289 290 290 290 289 287 286 284 283 282 280 279 278 278 279 278 278 276 274 273 272 271 271 270 268 265 262 258 255 253 253 252 251 248
282 283 284 285 286 287 288 289 290 290 290 289 287 285 284 283 281 280 279 278 278 277 278 277 277 275 273 272 271 270 270 270 270 269 267 265 261 257 254 253 252 251
283 284 285 286 287 288 290 291 291 291 290 288 287 285 284 283 282 280 279 279 279 279 279 278 277 275 272 270 270 269 269 269 270 269 268 267 265 262 258 254 253 252
284 285 286 287 289 291 293 294 294 294 292 290 289 288 287 285 283 282 282 281 281 281 280 279 278 276 273 270 269 268 267 268 269 269 268 267 265 264 262 258 255 253
284 285 287 289 291 295 297 298 298 298 296 295 293 291 289 287 285 284 283 283 283 283 282 282 280 278 276 273 271 268 266 265 266 267 268 266 264 263 262 260 258 254
285 287 288 291 295 298 300 302 302 301 300 298 296 293 289 286 285 285 285 286 286 285 285 284 283 281 279 277 273 270 267 265 265 266 267 266 264 261 259 258 258 255
287 289 291 295 299 301 304 306 306 304 302 299 295 292 289 288 287 288 288 288 287 285 284 282 281 279 278 276 273 271 268 267 267 268 267 266 263 260 257 255 254 254
288 291 294 297 300 304 307 309 307 304 301 298 294 291 290 290 290 291 291 290 289 287 285 283 281 279 276 274 273 271 269 268 268 268 267 265 262 259 256 252 250 251
291 294 297 300 302 306 310 310 307 303 299 296 293 290 290 291 293 294 294 294 294 293 291 289 285 282 279 276 273 271 270 268 267 266 264 261 259 256 253 250 247 246
293 296 298 301 304 308 311 310 305 301 298 295 293 291 291 293 295 296 296 297 297 297 296 293 289 285 281 277 274 271 269 267 265 263 261 257 255 253 250 248 245 242
294 297 299 301 305 309 310 308 303 298 296 295 293 293 294 295 296 297 298 299 300 299 298 294 289 285 281 278 275 271 268 266 263 261 258 255 253 250 248 245 242 238
297 299 302 305 309 310 309 305 301 297 296 295 295 295 295 295 296 298 300 301 301 300 297 293 287 284 283 281 278 273 269 267 266 264 262 259 254 250 246 243 239 235
Height
3096 3096 3096 3096 3095 3095 3096 3095 3095 3095 3095 3095 3095 3094 3094 3094 3093 3093 3092 3092 3091 3091 3091 3091 3091 3092 3093 3094 3095 3096 3096 3097 3099 3100 3101 3102 3103 3105 3107 3108 3109 3110
3093 3093 3093 3093 3092 3092 3092 3092 3092 3092 3092 3091 3091 3091 3091 3091 3091 3090 3090 3089 3088 3088 3088 3087 3088 3088 3088 3089 3090 3091 3092 3093 3094 3096 3096 3097 3098 3100 3101 3103 3104 3105
3090 3090 3090 3089 3089 3089 3089 3089 3089 3089 3088 3088 3087 3087 3087 3087 3087 3087 3087 3086 3086 3085 3084 3084 3084 3084 3084 3084 3085 3086 3087 3088 3089 3091 3091 3092 3093 3095 3096 3098 3098 3099
3087 3086 3086 3086 3086 3086 3086 3085 3085 3085 3085 3084 3084 3084 3083 3083 3083 3083 3083 3082 3082 3082 3081 3080 3080 3080 3080 3080 3080 3080 3081 3083 3085 3086 3086 3087 3088 3090 3091 3093 3093 3094
3084 3083 3083 3083 3083 3083 3082 3082 3082 3081 3081 3081 3081 3080 3080 3080 3079 3079 3078 3077 3077 3077 3077 3076 3075 3075 3075 3076 3076 3076 3076 3077 3079 3081 3081 3082 3083 3085 3086 3088 3089 3089
3080 3080 3080 3080 3080 3079 3079 3079 3078 3078 3077 3077 3077 3077 3076 3076 3075 3075 3074 3073 3073 3072 3072 3072 3071 3071 3070 3070 3071 3071 3072 3073 3074 3075 3076 3077 3078 3079 3081 3083 3084 3085
3077 3077 3077 3076 3076 3076 3076 3075 3074 3074 3073 3073 3072 3072 3072 3072 3071 3070 3069 3068 3068 3067 3067 3067 3067 3066 3066 3065 3065 3066 3067 3068 3069 3070 3070 3072 3073 3074 3075 3077 3079 3080
3074 3074 3073 3073 3072 3072 3072 3071 3071 3070 3069 3068 3068 3068 3067 3067 3066 3066 3065 3063 3063 3062 3062 3062 3061 3061 3061 3060 3060 3060 3061 3062 3063 3064 3065 3066 3068 3069 3070 3072 3073 3075
3070 3070 3069 3069 3069 3068 3068 3067 3066 3066 3065 3064 3063 3062 3062 3061 3061 3061 3060 3059 3058 3057 3057 3057 3056 3056 3055 3055 3054 3054 3055 3056 3057 3058 3059 3060 3062 3064 3065 3067 3068 3069
3066 3066 3066 3065 3065 3065 3064 3063 3062 3061 3060 3059 3058 3057 3056 3056 3056 3055 3055 3054 3053 3052 3052 3051 3051 3050 3050 3049 3049 3049 3049 3050 3051 3052 3053 3054 3056 3058 3060 3062 3063 3064
3063 3063 3062 3062 3061 3061 3060 3059 3058 3057 3056 3055 3054 3053 3052 3051 3050 3050 3049 3049 3049 3048 3047 3046 3046 3045 3044 3044 3044 3044 3043 3044 3045 3045 3046 3048 3050 3052 3054 3056 3057 3058
3059 3059 3059 3058 3058 3057 3056 3055 3054 3053 3052 3051 3049 3048 3047 3046 3045 3044 3044 3043 3043 3043 3042 3041 3041 3040 3039 3039 3038 3038 3038 3038 3039 3040 3041 3042 3043 3045 3047 3049 3051 3053
3055 3055 3055 3054 3054 3053 3052 3051 3050 3049 3048 3046 3045 3043 3042 3041 3040 3039 3038 3038 3038 3038 3037 3036 3036 3035 3035 3034 3034 3033 3033 3033 3033 3034 3035 3035 3036 3038 3040 3042 3044 3046
3052 3051 3051 3050 3049 3048 3047 3047 3046 3044 3043 3041 3040 3038 3037 3036 3035 3033 3032 3032 3032 3031 3031 3031 3030 3030 3029 3029 3029 3029 3028 3028 3028 3028 3028 3029 3030 3031 3033 3034 3036 3039
3048 3047 3047 3046 3045 3044 3043 3042 3041 3039 3038 3036 3034 3033 3031 3030 3029 3027 3026 3026 3025 3025 3025 3024 3024 3024 3024 3024 3025 3024 3023 3023 3022 3022 3022 3023 3023 3024 3026 3027 3029 3031
3044 3043 3042 3041 3040 3039 3038 3037 3035 3034 3032 3030 3029 3027 3025 3024 3022 3021 3020 3019 3019 3018 3018 3017 3017 3017 3018 3019 3019 3019 3018 3018 3017 3017 3017 3017 3017 3018 3019 3020 3022 3023
3040 3039 3038 3036 3035 3034 3033 3031 3029 3028 3026 3024 3023 3021 3019 3018 3016 3015 3014 3013 3012 3011 3011 3010 3010 3010 3012 3013 3013 3013 3013 3012 3011 3011 3011 3011 3011 3011 3012 3014 3015 3016
3036 3035 3033 3032 3030 3029 3027 3026 3024 3022 3020 3018 3017 3015 3013 3012 3011 3009 3008 3007 3006 3005 3004 3003 3003 3003 3004 3006 3006 3007 3007 3006 3005 3005 3005 3004 3005 3005 3005 3006 3008 3010
3032 3031 3029 3027 3026 3024 3023 3020 3018 3016 3014 3012 3011 3009 3008 3007 3005 3004 3003 3001 3000 2999 2997 2996 2996 2996 2997 2998 2999 2999 3000 2999 2998 2998 2997 2997 2998 2998 2998 2999 3001 3003
3028 3027 3025 3023 3021 3020 3018 3016 3013 3011 3009 3007 3005 3004 3002 3001 3000 2999 2997 2996 2994 2993 2991 2990 2989 2989 2989 2989 2990 2991 2991 2990 2990 2990 2989 2989 2989 2990 2990 2991 2992 2995
3024 3022 3021 3019 3017 3015 3013 3011 3008 3006 3004 3002 3000 2998 2997 2995 2994 2993 2991 2990 2989 2987 2985 2984 2983 2982 2982 2981 2981 2981 2981 2980 2980 2980 2979 2979 2980 2980 2982 2983 2984 2986
3020 3018 3017 3015 3013 3011 3009 3006 3003 3001 2999 2997 2995 2993 2991 2990 2988 2986 2985 2984 2982 2981 2978 2976 2976 2975 2973 2972 2971 2971 2971 2970 2969 2968 2968 2969 2970 2971 2972 2973 2976 2978
3016 3015 3013 3011 3009 3007 3005 3002 2999 2997 2995 2992 2990 2988 2986 2984 2982 2981 2979 2977 2975 2973 2970 2967 2966 2965 2963 2962 2961 2960 2959 2958 2957 2956 2956 2957 2958 2960 2961 2963 2966 2969
3013 3011 3010 3008 3005 3003 3001 2998 2995 2992 2990 2988 2985 2983 2981 2979 2977 2975 2973 2970 2968 2965 2962 2958 2955 2954 2952 2950 2949 2948 2946 2945 2945 2945 2944 2945 2947 2948 2950 2952 2955 2960
3010 3008 3006 3004 3002 2999 2996 2993 2990 2988 2986 2983 2981 2978 2976 2974 2971 2969 2966 2963 2960 2957 2953 2949 2945 2943 2942 2940 2939 2938 2936 2935 2935 2934 2933 2934 2936 2937 2939 2942 2945 2950
3006 3004 3002 3000 2998 2995 2991 2988 2986 2983 2981 2978 2976 2973 2971 2969 2966 2963 2959 2956 2953 2949 2945 2941 2937 2934 2934 2933 2931 2930 2929 2927 2926 2925 2924 2925 2926 2927 2929 2932 2936 2941